Location: Seattle
(47.6064°N, 122.3308°W)
Time: 04:35:57
(UTC-08:00)

S-56A Canister/Altair - Pass Details

Date: 03 December 2020
Orbit: 633 x 2499 km, 38.9° (Epoch: 23 January)

Event Time Altitude Azimuth Distance (km) Brightness Sun altitude
Rises 18:52:49 0° 242° (WSW) 5,972 13.2 -25.1°
Reaches altitude 10° 18:57:11 10° 237° (WSW) 4,786 12.4 -25.8°
Maximum altitude 19:09:12 48° 170° (S) 2,180 9.6 -27.8°
Enters shadow 19:12:03 39° 131° (SE) 2,243 9.5 -28.3°
Drops below altitude 10° 19:17:32 10° 99° (E) 3,367 - -29.2°
Sets 19:20:05 0° 94° (E) 4,114 - -29.7°
